Flag for Tanzania Weather past 2 weeks in Arusha, Tanzania

Now
63 °F

Clear.


Feels Like: 63 °F
Forecast: 58 / 88 °F
Wind: 7 mph from North

Location: Kenyatta Airport

Current Time: Jan 30, 2015 at 3:59:22 AM

Latest Report: Jan 30, 2015 at 2:00 AM


Visibility: 10 mi

Pressure: 30.12 "Hg

Humidity: 68%

Dew point: 52 °F

Location of ArushaLocation

Historic Weather in Arusha — Graph

°F

Arusha temperature yesterday

Maximum temperature yesterday: 86 °F (at 3:00 PM)
Minimum temperature yesterday: 59 °F (at 7:00 AM)
Average temperature yesterday: 71 °F

Past Weeks' High & Low Weather Summary

 TemperatureHumidityPressure
High86 °F (Jan 15, 3:00 PM)100% (Jan 22, 6:30 AM)30.27 "Hg (Jan 22, 6:30 AM)
Low48 °F (Jan 15, 6:00 AM)19% (Jan 15, 1:00 PM)30.01 "Hg (Jan 16, 3:00 PM)
Average70 °F55%30.13 "Hg
* Reported Jan 15 2:00 AM — Jan 30 2:00 AM, Arusha, Weather by CustomWeather, © 2014

Note: Actual official high and low records may vary slightly from our data, if they occured in-between our weather recording intervals... More about our weather records

Advertising

Arusha weather history for previous 24 hours

 ConditionsComfort  
Time TempWeatherWind HumidityBarometerVisibility
2:00 AM
Jan 30
63 °FClear.7 mph68%30.12 "Hg10 mi
1:00 AM63 °FClear.7 mph73%30.12 "Hg10 mi
12:00 AM64 °FClear.8 mph68%30.15 "Hg10 mi
11:00 PM
Jan 29
64 °FClear.7 mph68%30.15 "Hg10 mi
10:00 PM68 °FClear.9 mph60%30.15 "Hg10 mi
9:00 PM70 °FPassing clouds.12 mph57%30.09 "HgN/A
8:00 PM73 °FPassing clouds.16 mph47%30.09 "HgN/A
7:00 PM77 °FPassing clouds.18 mph39%30.07 "HgN/A
6:00 PM81 °FPassing clouds.17 mph32%30.04 "HgN/A
5:00 PM82 °FPassing clouds.15 mph26%30.01 "HgN/A
4:00 PM84 °FPassing clouds.9 mph25%30.01 "HgN/A
3:00 PM86 °FPassing clouds.12 mph25%30.04 "HgN/A
2:00 PM84 °FPassing clouds.9 mph27%30.07 "HgN/A
1:00 PM82 °FPassing clouds.18 mph28%30.09 "HgN/A
12:00 PM79 °FPassing clouds.14 mph32%30.12 "HgN/A
11:00 AM77 °FPassing clouds.8 mph36%30.15 "HgN/A
10:00 AM75 °FPassing clouds.12 mph44%30.18 "HgN/A
9:00 AM70 °FPassing clouds.8 mph53%30.18 "HgN/A
8:00 AM64 °FScattered clouds.5 mph64%30.15 "HgN/A
7:00 AM59 °FScattered clouds.5 mph77%30.12 "HgN/A
6:00 AM61 °FClear.3 mph72%30.12 "Hg10 mi
5:00 AM61 °FClear.7 mph72%30.09 "Hg10 mi
4:00 AM61 °FClear.7 mph72%30.09 "Hg10 mi
3:00 AM61 °FClear.6 mph72%30.09 "Hg10 mi
Weather by CustomWeather, © 2014

See weather overviewHow to use our weather pages